Home   Weather   Stjørdal   Past weeks

Flag for Norway Past Weather in Stjørdal, Norway — Yesterday and Last 2 Weeks

Now
N/A

Overcast.


Feels Like: N/A
Forecast: 31 / 42 °F
Wind: N/A

Location: Trondheim / Vaernes

Current Time: Apr 25, 2017 at 11:06:15 am

Latest Report: Apr 25, 2017 at 10:00 am


Visibility: 28 mi

Pressure: N/A

Humidity: N/A

Dew Point: N/A

Location of StjørdalLocation

Past Weather in Stjørdal — Graph

°F

Stjørdal Temperature Yesterday

Maximum temperature yesterday: 42 °F (at 4:00 pm)
Minimum temperature yesterday: 27 °F (at 5:00 am)
Average temperature yesterday: 36 °F

High & Low Weather Summary for the Past Weeks

 TemperatureHumidityPressure
High47 °F (Apr 20, 3:00 pm)97% (Apr 21, 8:00 pm)30.51 "Hg (Apr 21, 8:00 pm)
Low26 °F (Apr 18, 6:00 am)36% (Apr 17, 4:00 pm)29.38 "Hg (Apr 10, 12:00 pm)
Average37 °F68%29.84 "Hg
* Reported Apr 10 9:00 am — Apr 25 9:00 am, Stjørdal, Weather by CustomWeather, © 2017

Note: Actual official high and low records may vary slightly from our data, if they occured in-between our weather recording intervals... More about our weather records

Advertising

Stjørdal Weather History for the Previous 24 Hours

Scroll right to see more
 ConditionsComfort  
Time TempWeatherWind HumidityBarometerVisibility
9:00 am
Tue, Apr 25
36 °FPassing clouds.2 mph68%29.71 "Hg25 mi
8:00 am34 °FSunny.1 mph76%29.70 "Hg28 mi
7:00 am31 °FSunny.1 mph84%29.69 "Hg31 mi
6:00 am29 °FPassing clouds.2 mph89%29.68 "Hg31 mi
5:00 am29 °FClear.2 mph86%29.67 "Hg31 mi
4:00 am30 °FClear.2 mph89%29.67 "Hg7 mi
3:00 amN/AClear.N/AN/AN/A4 mi
2:00 am32 °FClear.2 mph81%29.66 "Hg31 mi
1:00 am34 °FPassing clouds.3 mph75%29.65 "Hg31 mi
12:00 am37 °FOvercast.5 mph68%29.65 "Hg31 mi
11:00 pm
Mon, Apr 24
37 °FPassing clouds.3 mph66%29.64 "Hg31 mi
8:00 pm41 °FSunny.6 mph51%29.62 "Hg31 mi
7:00 pm42 °FSunny.6 mph44%29.62 "Hg28 mi
6:00 pm42 °FPassing clouds.5 mph46%29.61 "Hg28 mi
5:00 pm42 °FPassing clouds.6 mph49%29.61 "Hg28 mi
4:00 pm42 °FSunny.6 mph51%29.62 "Hg18 mi
3:00 pm42 °FPartly sunny.5 mph44%29.62 "Hg22 mi
2:00 pm42 °FScattered clouds.6 mph40%29.62 "Hg25 mi
1:00 pm41 °FSunny.2 mph41%29.63 "Hg25 mi
12:00 pmN/ASunny.N/AN/AN/A22 mi
11:00 am38 °FSunny.2 mph56%29.65 "Hg22 mi
Weather by CustomWeather, © 2017

See weather overviewHow to use our weather pages